owner,sensor,date,latitude,longitude,air_pressure(mBar),qcFlag 
TABS,ioos:station:wmo:42043:1,2019-11-01T04:00:00Z,28.9818,-94.9186,1028.28,11111222 
TABS,ioos:station:wmo:42043:1,2019-11-01T05:00:00Z,28.9818,-94.9186,1028.39,11111222 
TABS,ioos:station:wmo:42043:1,2019-11-01T06:00:00Z,28.9818,-94.9186,1027.79,11111222 
TABS,ioos:station:wmo:42043:1,2019-11-01T07:00:00Z,28.9818,-94.9186,1027.63,11111222 
TABS,ioos:station:wmo:42043:1,2019-11-01T08:00:00Z,28.9818,-94.9186,1027.31,11111222 
TABS,ioos:station:wmo:42043:1,2019-11-01T09:00:00Z,28.9818,-94.9186,1027.52,11111222 
TABS,ioos:station:wmo:42043:1,2019-11-01T10:00:00Z,28.9818,-94.9186,1027.96,11111222 
TABS,ioos:station:wmo:42043:1,2019-11-01T11:00:00Z,28.9818,-94.9186,1028.12,11111222 
TABS,ioos:station:wmo:42043:1,2019-11-01T12:00:00Z,28.9818,-94.9186,1028.41,11111222 
TABS,ioos:station:wmo:42043:1,2019-11-01T13:00:00Z,28.9818,-94.9186,1028.74,11111222 
TABS,ioos:station:wmo:42043:1,2019-11-01T14:00:00Z,28.9818,-94.9186,1028.73,11111222 
TABS,ioos:station:wmo:42043:1,2019-11-01T15:00:00Z,28.9818,-94.9186,1028.4,11111222 
TABS,ioos:station:wmo:42043:1,2019-11-01T16:00:00Z,28.9818,-94.9186,1028.33,11111222 
TABS,ioos:station:wmo:42043:1,2019-11-01T17:00:00Z,28.9818,-94.9186,1027.76,11111222 
TABS,ioos:station:wmo:42043:1,2019-11-01T18:00:00Z,28.9818,-94.9186,1026.34,11111222 
TABS,ioos:station:wmo:42043:1,2019-11-01T19:00:00Z,28.9818,-94.9186,1025.52,11111222 
TABS,ioos:station:wmo:42043:1,2019-11-01T20:00:00Z,28.9818,-94.9186,1024.96,11111222 
TABS,ioos:station:wmo:42043:1,2019-11-01T21:00:00Z,28.9818,-94.9186,1024.28,11111222 
TABS,ioos:station:wmo:42043:1,2019-11-01T22:00:00Z,28.9818,-94.9186,1023.84,11111222 
TABS,ioos:station:wmo:42043:1,2019-11-01T23:00:00Z,28.9818,-94.9186,1024.14,11111222 
TABS,ioos:station:wmo:42043:1,2019-11-01T23:30:00Z,28.9818,-94.9186,1024.03,11111222 
TABS,ioos:station:wmo:42043:1,2019-11-02T04:00:00Z,28.9818,-94.9186,1025.19,11111222 
TABS,ioos:station:wmo:42043:1,2019-11-02T05:00:00Z,28.9818,-94.9186,1024.73,11111222 
TABS,ioos:station:wmo:42043:1,2019-11-02T06:00:00Z,28.9818,-94.9186,1024.91,11111222 
TABS,ioos:station:wmo:42043:1,2019-11-02T07:00:00Z,28.9818,-94.9186,1025.32,11111222 
TABS,ioos:station:wmo:42043:1,2019-11-02T08:00:00Z,28.9818,-94.9186,1025.49,11111222 
TABS,ioos:station:wmo:42043:1,2019-11-02T09:00:00Z,28.9818,-94.9186,1025.61,11111222 
TABS,ioos:station:wmo:42043:1,2019-11-02T10:00:00Z,28.9818,-94.9186,1025.94,11111222 
TABS,ioos:station:wmo:42043:1,2019-11-02T11:00:00Z,28.9818,-94.9186,1026.12,11111222 
TABS,ioos:station:wmo:42043:1,2019-11-02T12:00:00Z,28.9818,-94.9186,1026.46,11111222 
TABS,ioos:station:wmo:42043:1,2019-11-02T13:00:00Z,28.9818,-94.9186,1027.15,11111222 
TABS,ioos:station:wmo:42043:1,2019-11-02T14:00:00Z,28.9818,-94.9186,1028.06,11111222 
TABS,ioos:station:wmo:42043:1,2019-11-02T15:00:00Z,28.9818,-94.9186,1028.12,11111222 
TABS,ioos:station:wmo:42043:1,2019-11-02T16:00:00Z,28.9818,-94.9186,1028.0,11111222 
TABS,ioos:station:wmo:42043:1,2019-11-02T17:00:00Z,28.9818,-94.9186,1028.08,11111222 
TABS,ioos:station:wmo:42043:1,2019-11-02T18:00:00Z,28.9818,-94.9186,1027.44,11111222 
TABS,ioos:station:wmo:42043:1,2019-11-02T19:00:00Z,28.9818,-94.9186,1026.33,11111222 
TABS,ioos:station:wmo:42043:1,2019-11-02T20:00:00Z,28.9818,-94.9186,1025.78,11111222 
TABS,ioos:station:wmo:42043:1,2019-11-02T21:00:00Z,28.9818,-94.9186,1025.34,11111222 
TABS,ioos:station:wmo:42043:1,2019-11-02T22:00:00Z,28.9818,-94.9186,1025.03,11111222 
TABS,ioos:station:wmo:42043:1,2019-11-02T23:00:00Z,28.9818,-94.9186,1025.38,11111222 
TABS,ioos:station:wmo:42043:1,2019-11-02T23:30:00Z,28.9818,-94.9186,1025.62,11111222 
TABS,ioos:station:wmo:42043:1,2019-11-03T04:00:00Z,28.9818,-94.9186,1025.25,11111222 
TABS,ioos:station:wmo:42043:1,2019-11-03T05:00:00Z,28.9818,-94.9186,1025.27,11111222 
TABS,ioos:station:wmo:42043:1,2019-11-03T06:00:00Z,28.9818,-94.9186,1024.89,11111222 
TABS,ioos:station:wmo:42043:1,2019-11-03T07:00:00Z,28.9818,-94.9186,1024.67,11111222 
TABS,ioos:station:wmo:42043:1,2019-11-03T08:00:00Z,28.9818,-94.9186,1024.43,11111222 
TABS,ioos:station:wmo:42043:1,2019-11-03T09:00:00Z,28.9818,-94.9186,1024.09,11111222 
TABS,ioos:station:wmo:42043:1,2019-11-03T10:00:00Z,28.9818,-94.9186,1023.95,11111222 
TABS,ioos:station:wmo:42043:1,2019-11-03T11:00:00Z,28.9818,-94.9186,1024.12,11111222 
TABS,ioos:station:wmo:42043:1,2019-11-03T12:00:00Z,28.9818,-94.9186,1024.07,11111222 
TABS,ioos:station:wmo:42043:1,2019-11-03T13:00:00Z,28.9818,-94.9186,1024.3,11111222 
TABS,ioos:station:wmo:42043:1,2019-11-03T14:00:00Z,28.9818,-94.9186,1024.6,11111222 
TABS,ioos:station:wmo:42043:1,2019-11-03T15:00:00Z,28.9818,-94.9186,1024.68,11111222 
TABS,ioos:station:wmo:42043:1,2019-11-03T16:00:00Z,28.9818,-94.9186,1024.3,11111222 
TABS,ioos:station:wmo:42043:1,2019-11-03T17:00:00Z,28.9818,-94.9186,1023.86,11111222 
TABS,ioos:station:wmo:42043:1,2019-11-03T18:00:00Z,28.9818,-94.9186,1023.0,11111222 
TABS,ioos:station:wmo:42043:1,2019-11-03T19:00:00Z,28.9818,-94.9186,1021.7,11111222 
TABS,ioos:station:wmo:42043:1,2019-11-03T20:00:00Z,28.9818,-94.9186,1020.77,11111222 
TABS,ioos:station:wmo:42043:1,2019-11-03T21:00:00Z,28.9818,-94.9186,1020.4,11111222 
TABS,ioos:station:wmo:42043:1,2019-11-03T22:00:00Z,28.9818,-94.9186,1020.04,11111222 
TABS,ioos:station:wmo:42043:1,2019-11-03T23:00:00Z,28.9818,-94.9186,1019.78,11111222 
TABS,ioos:station:wmo:42043:1,2019-11-03T23:30:00Z,28.9818,-94.9186,1019.65,11111222 
TABS,ioos:station:wmo:42043:1,2019-11-04T05:00:00Z,28.9818,-94.9186,1018.36,11111222 
TABS,ioos:station:wmo:42043:1,2019-11-04T15:30:00Z,28.9818,-94.9186,1018.02,11111222 
TABS,ioos:station:wmo:42043:1,2019-11-04T16:00:00Z,28.9818,-94.9186,1018.37,11111222 
TABS,ioos:station:wmo:42043:1,2019-11-04T17:00:00Z,28.9818,-94.9186,1017.58,11111222 
TABS,ioos:station:wmo:42043:1,2019-11-04T18:00:00Z,28.9818,-94.9186,1017.08,11111222 
TABS,ioos:station:wmo:42043:1,2019-11-04T19:00:00Z,28.9818,-94.9186,1016.32,11111222 
TABS,ioos:station:wmo:42043:1,2019-11-04T20:00:00Z,28.9818,-94.9186,1015.59,11111222 
TABS,ioos:station:wmo:42043:1,2019-11-04T21:00:00Z,28.9818,-94.9186,1015.17,11111222 
TABS,ioos:station:wmo:42043:1,2019-11-04T22:00:00Z,28.9818,-94.9186,1015.23,11111222 
TABS,ioos:station:wmo:42043:1,2019-11-04T23:00:00Z,28.9818,-94.9186,1015.42,11111222 
TABS,ioos:station:wmo:42043:1,2019-11-04T23:30:00Z,28.9818,-94.9186,1015.53,11111222 
TABS,ioos:station:wmo:42043:1,2019-11-05T05:00:00Z,28.9818,-94.9186,1016.48,11111222 
TABS,ioos:station:wmo:42043:1,2019-11-05T06:00:00Z,28.9818,-94.9186,1016.6,11111222 
TABS,ioos:station:wmo:42043:1,2019-11-05T07:00:00Z,28.9818,-94.9186,1016.83,11111222 
TABS,ioos:station:wmo:42043:1,2019-11-05T08:00:00Z,28.9818,-94.9186,1017.2,11111222 
TABS,ioos:station:wmo:42043:1,2019-11-05T09:00:00Z,28.9818,-94.9186,1017.37,11111222 
TABS,ioos:station:wmo:42043:1,2019-11-05T10:00:00Z,28.9818,-94.9186,1017.82,11111222 
TABS,ioos:station:wmo:42043:1,2019-11-05T11:00:00Z,28.9818,-94.9186,1018.34,11111222 
TABS,ioos:station:wmo:42043:1,2019-11-05T12:00:00Z,28.9818,-94.9186,1018.88,11111222 
TABS,ioos:station:wmo:42043:1,2019-11-05T13:00:00Z,28.9818,-94.9186,1019.66,11111222 
TABS,ioos:station:wmo:42043:1,2019-11-05T14:00:00Z,28.9818,-94.9186,1020.32,11111222 
TABS,ioos:station:wmo:42043:1,2019-11-05T15:00:00Z,28.9818,-94.9186,1020.89,11111222 
TABS,ioos:station:wmo:42043:1,2019-11-05T16:00:00Z,28.9818,-94.9186,1021.29,11111222 
TABS,ioos:station:wmo:42043:1,2019-11-05T17:00:00Z,28.9818,-94.9186,1021.03,11111222 
TABS,ioos:station:wmo:42043:1,2019-11-05T18:00:00Z,28.9818,-94.9186,1020.48,11111222 
TABS,ioos:station:wmo:42043:1,2019-11-05T19:00:00Z,28.9818,-94.9186,1019.9,11111222 
TABS,ioos:station:wmo:42043:1,2019-11-05T20:00:00Z,28.9818,-94.9186,1019.72,11111222 
TABS,ioos:station:wmo:42043:1,2019-11-05T21:00:00Z,28.9818,-94.9186,1020.05,11111222 
TABS,ioos:station:wmo:42043:1,2019-11-05T22:00:00Z,28.9818,-94.9186,1020.32,11111222 
TABS,ioos:station:wmo:42043:1,2019-11-05T23:00:00Z,28.9818,-94.9186,1020.4,11111222 
TABS,ioos:station:wmo:42043:1,2019-11-05T23:30:00Z,28.9818,-94.9186,1020.51,11111222 
TABS,ioos:station:wmo:42043:1,2019-11-06T05:00:00Z,28.9818,-94.9186,1022.39,11111222 
TABS,ioos:station:wmo:42043:1,2019-11-06T06:00:00Z,28.9818,-94.9186,1022.25,11111222 
TABS,ioos:station:wmo:42043:1,2019-11-06T07:00:00Z,28.9818,-94.9186,1022.12,11111222 
TABS,ioos:station:wmo:42043:1,2019-11-06T08:00:00Z,28.9818,-94.9186,1021.98,11111222 
TABS,ioos:station:wmo:42043:1,2019-11-06T09:00:00Z,28.9818,-94.9186,1021.6,11111222 
TABS,ioos:station:wmo:42043:1,2019-11-06T10:00:00Z,28.9818,-94.9186,1021.69,11111222 
TABS,ioos:station:wmo:42043:1,2019-11-06T11:00:00Z,28.9818,-94.9186,1021.87,11111222 
TABS,ioos:station:wmo:42043:1,2019-11-06T12:00:00Z,28.9818,-94.9186,1022.3,11111222 
TABS,ioos:station:wmo:42043:1,2019-11-06T13:00:00Z,28.9818,-94.9186,1022.78,11111222 
TABS,ioos:station:wmo:42043:1,2019-11-06T14:00:00Z,28.9818,-94.9186,1023.15,11111222 
TABS,ioos:station:wmo:42043:1,2019-11-06T15:00:00Z,28.9818,-94.9186,1023.57,11111222 
TABS,ioos:station:wmo:42043:1,2019-11-06T16:00:00Z,28.9818,-94.9186,1023.82,11111222 
TABS,ioos:station:wmo:42043:1,2019-11-06T17:00:00Z,28.9818,-94.9186,1023.09,11111222 
TABS,ioos:station:wmo:42043:1,2019-11-06T18:00:00Z,28.9818,-94.9186,1021.74,11111222 
TABS,ioos:station:wmo:42043:1,2019-11-06T19:00:00Z,28.9818,-94.9186,1021.06,11111222 
TABS,ioos:station:wmo:42043:1,2019-11-06T20:00:00Z,28.9818,-94.9186,1020.32,11111222 
TABS,ioos:station:wmo:42043:1,2019-11-06T21:00:00Z,28.9818,-94.9186,1019.87,11111222 
TABS,ioos:station:wmo:42043:1,2019-11-06T22:00:00Z,28.9818,-94.9186,1019.62,11111222 
TABS,ioos:station:wmo:42043:1,2019-11-06T23:00:00Z,28.9818,-94.9186,1019.69,11111222 
TABS,ioos:station:wmo:42043:1,2019-11-06T23:30:00Z,28.9818,-94.9186,1019.61,11111222 
TABS,ioos:station:wmo:42043:1,2019-11-07T04:30:00Z,28.9818,-94.9186,1019.24,11111222 
TABS,ioos:station:wmo:42043:1,2019-11-07T05:30:00Z,28.9818,-94.9186,1018.74,11111222 
TABS,ioos:station:wmo:42043:1,2019-11-07T07:00:00Z,28.9818,-94.9186,1018.45,11111222 
TABS,ioos:station:wmo:42043:1,2019-11-07T08:00:00Z,28.9818,-94.9186,1017.81,11111222 
TABS,ioos:station:wmo:42043:1,2019-11-07T09:00:00Z,28.9818,-94.9186,1017.67,11111222 
TABS,ioos:station:wmo:42043:1,2019-11-07T10:00:00Z,28.9818,-94.9186,1017.94,11111222 
TABS,ioos:station:wmo:42043:1,2019-11-07T11:00:00Z,28.9818,-94.9186,1018.16,11111222 
TABS,ioos:station:wmo:42043:1,2019-11-07T12:00:00Z,28.9818,-94.9186,1018.46,11111222 
TABS,ioos:station:wmo:42043:1,2019-11-07T13:00:00Z,28.9818,-94.9186,1018.98,11111222 
TABS,ioos:station:wmo:42043:1,2019-11-07T14:00:00Z,28.9818,-94.9186,1019.67,11111222 
TABS,ioos:station:wmo:42043:1,2019-11-07T15:00:00Z,28.9818,-94.9186,1020.33,11111222 
TABS,ioos:station:wmo:42043:1,2019-11-07T16:00:00Z,28.9818,-94.9186,1020.07,11111222 
TABS,ioos:station:wmo:42043:1,2019-11-07T17:00:00Z,28.9818,-94.9186,1019.18,11111222 
TABS,ioos:station:wmo:42043:1,2019-11-07T18:00:00Z,28.9818,-94.9186,1018.39,11111222 
TABS,ioos:station:wmo:42043:1,2019-11-07T19:00:00Z,28.9818,-94.9186,1017.05,11111222 
TABS,ioos:station:wmo:42043:1,2019-11-07T19:30:00Z,28.9818,-94.9186,1016.56,11111222 
TABS,ioos:station:wmo:42043:1,2019-11-07T21:00:00Z,28.9818,-94.9186,1017.09,11111222 
TABS,ioos:station:wmo:42043:1,2019-11-07T22:00:00Z,28.9818,-94.9186,1017.35,11111222 
TABS,ioos:station:wmo:42043:1,2019-11-07T23:00:00Z,28.9818,-94.9186,1018.18,11111222 
TABS,ioos:station:wmo:42043:1,2019-11-07T23:30:00Z,28.9818,-94.9186,1019.0,11111222 
TABS,ioos:station:wmo:42043:1,2019-11-08T05:00:00Z,28.9818,-94.9186,1021.32,11111222 
TABS,ioos:station:wmo:42043:1,2019-11-08T06:00:00Z,28.9818,-94.9186,1021.4,11111222 
TABS,ioos:station:wmo:42043:1,2019-11-08T07:00:00Z,28.9818,-94.9186,1021.07,11111222 
TABS,ioos:station:wmo:42043:1,2019-11-08T08:00:00Z,28.9818,-94.9186,1021.38,11111222 
TABS,ioos:station:wmo:42043:1,2019-11-08T09:00:00Z,28.9818,-94.9186,1021.43,11111222 
TABS,ioos:station:wmo:42043:1,2019-11-08T10:00:00Z,28.9818,-94.9186,1021.82,11111222 
TABS,ioos:station:wmo:42043:1,2019-11-08T11:00:00Z,28.9818,-94.9186,1021.63,11111222 
TABS,ioos:station:wmo:42043:1,2019-11-08T12:00:00Z,28.9818,-94.9186,1022.03,11111222 
TABS,ioos:station:wmo:42043:1,2019-11-08T13:00:00Z,28.9818,-94.9186,1023.15,11111222 
TABS,ioos:station:wmo:42043:1,2019-11-08T14:00:00Z,28.9818,-94.9186,1023.82,11111222 
TABS,ioos:station:wmo:42043:1,2019-11-08T15:00:00Z,28.9818,-94.9186,1024.45,11111222 
TABS,ioos:station:wmo:42043:1,2019-11-08T16:00:00Z,28.9818,-94.9186,1024.01,11111222 
TABS,ioos:station:wmo:42043:1,2019-11-08T17:00:00Z,28.9818,-94.9186,1023.81,11111222 
TABS,ioos:station:wmo:42043:1,2019-11-08T18:00:00Z,28.9818,-94.9186,1023.4,11111222 
TABS,ioos:station:wmo:42043:1,2019-11-08T19:00:00Z,28.9818,-94.9186,1022.86,11111222 
TABS,ioos:station:wmo:42043:1,2019-11-08T20:00:00Z,28.9818,-94.9186,1022.57,11111222 
TABS,ioos:station:wmo:42043:1,2019-11-08T21:00:00Z,28.9818,-94.9186,1022.72,11111222 
TABS,ioos:station:wmo:42043:1,2019-11-08T22:00:00Z,28.9818,-94.9186,1022.91,11111222 
TABS,ioos:station:wmo:42043:1,2019-11-08T23:00:00Z,28.9818,-94.9186,1023.44,11111222 
TABS,ioos:station:wmo:42043:1,2019-11-08T23:30:00Z,28.9818,-94.9186,1023.85,11111222 
TABS,ioos:station:wmo:42043:1,2019-11-09T05:00:00Z,28.9818,-94.9186,1025.1,11111222 
TABS,ioos:station:wmo:42043:1,2019-11-09T06:00:00Z,28.9818,-94.9186,1024.85,11111222 
TABS,ioos:station:wmo:42043:1,2019-11-09T07:00:00Z,28.9818,-94.9186,1024.76,11111222 
TABS,ioos:station:wmo:42043:1,2019-11-09T08:00:00Z,28.9818,-94.9186,1024.43,11111222 
TABS,ioos:station:wmo:42043:1,2019-11-09T09:00:00Z,28.9818,-94.9186,1024.32,11111222 
TABS,ioos:station:wmo:42043:1,2019-11-09T10:00:00Z,28.9818,-94.9186,1024.26,11111222 
TABS,ioos:station:wmo:42043:1,2019-11-09T11:00:00Z,28.9818,-94.9186,1024.16,11111222 
TABS,ioos:station:wmo:42043:1,2019-11-09T12:00:00Z,28.9818,-94.9186,1024.65,11111222 
TABS,ioos:station:wmo:42043:1,2019-11-09T13:00:00Z,28.9818,-94.9186,1024.87,11111222 
TABS,ioos:station:wmo:42043:1,2019-11-09T14:00:00Z,28.9818,-94.9186,1025.14,11111222 
TABS,ioos:station:wmo:42043:1,2019-11-09T15:00:00Z,28.9818,-94.9186,1025.72,11111222 
TABS,ioos:station:wmo:42043:1,2019-11-09T16:00:00Z,28.9818,-94.9186,1025.56,11111222 
TABS,ioos:station:wmo:42043:1,2019-11-09T17:00:00Z,28.9818,-94.9186,1024.99,11111222 
TABS,ioos:station:wmo:42043:1,2019-11-09T18:00:00Z,28.9818,-94.9186,1024.41,11111222 
TABS,ioos:station:wmo:42043:1,2019-11-09T19:00:00Z,28.9818,-94.9186,1023.56,11111222 
TABS,ioos:station:wmo:42043:1,2019-11-09T20:00:00Z,28.9818,-94.9186,1022.95,11111222 
TABS,ioos:station:wmo:42043:1,2019-11-09T21:00:00Z,28.9818,-94.9186,1022.7,11111222 
TABS,ioos:station:wmo:42043:1,2019-11-09T22:00:00Z,28.9818,-94.9186,1022.36,11111222 
TABS,ioos:station:wmo:42043:1,2019-11-09T23:00:00Z,28.9818,-94.9186,1022.08,11111222 
TABS,ioos:station:wmo:42043:1,2019-11-09T23:30:00Z,28.9818,-94.9186,1022.26,11111222 
TABS,ioos:station:wmo:42043:1,2019-11-10T05:00:00Z,28.9818,-94.9186,1022.41,11111222 
TABS,ioos:station:wmo:42043:1,2019-11-10T06:00:00Z,28.9818,-94.9186,1022.12,11111222 
TABS,ioos:station:wmo:42043:1,2019-11-10T07:00:00Z,28.9818,-94.9186,1021.84,11111222 
TABS,ioos:station:wmo:42043:1,2019-11-10T08:00:00Z,28.9818,-94.9186,1021.53,11111222 
TABS,ioos:station:wmo:42043:1,2019-11-10T09:00:00Z,28.9818,-94.9186,1021.06,11111222 
TABS,ioos:station:wmo:42043:1,2019-11-10T10:00:00Z,28.9818,-94.9186,1021.19,11111222 
TABS,ioos:station:wmo:42043:1,2019-11-10T11:00:00Z,28.9818,-94.9186,1020.86,11111222 
TABS,ioos:station:wmo:42043:1,2019-11-10T11:30:00Z,28.9818,-94.9186,1021.13,11111222 
TABS,ioos:station:wmo:42043:1,2019-11-10T13:00:00Z,28.9818,-94.9186,1021.45,11111222 
TABS,ioos:station:wmo:42043:1,2019-11-10T13:30:00Z,28.9818,-94.9186,1021.66,11111222 
TABS,ioos:station:wmo:42043:1,2019-11-10T14:30:00Z,28.9818,-94.9186,1021.82,11111222 
TABS,ioos:station:wmo:42043:1,2019-11-10T15:30:00Z,28.9818,-94.9186,1022.02,11111222 
TABS,ioos:station:wmo:42043:1,2019-11-10T16:30:00Z,28.9818,-94.9186,1021.66,11111222 
TABS,ioos:station:wmo:42043:1,2019-11-10T18:00:00Z,28.9818,-94.9186,1020.11,11111222 
TABS,ioos:station:wmo:42043:1,2019-11-10T19:00:00Z,28.9818,-94.9186,1019.17,11111222 
TABS,ioos:station:wmo:42043:1,2019-11-10T19:30:00Z,28.9818,-94.9186,1018.74,11111222 
TABS,ioos:station:wmo:42043:1,2019-11-10T21:00:00Z,28.9818,-94.9186,1017.67,11111222 
TABS,ioos:station:wmo:42043:1,2019-11-10T22:00:00Z,28.9818,-94.9186,1017.51,11111222 
TABS,ioos:station:wmo:42043:1,2019-11-10T23:00:00Z,28.9818,-94.9186,1017.25,11111222 
TABS,ioos:station:wmo:42043:1,2019-11-10T23:30:00Z,28.9818,-94.9186,1017.26,11111222 
TABS,ioos:station:wmo:42043:1,2019-11-11T05:00:00Z,28.9818,-94.9186,1016.26,11111222 
TABS,ioos:station:wmo:42043:1,2019-11-11T06:00:00Z,28.9818,-94.9186,1015.7,11111222 
TABS,ioos:station:wmo:42043:1,2019-11-11T07:00:00Z,28.9818,-94.9186,1015.47,11111222 
TABS,ioos:station:wmo:42043:1,2019-11-11T09:00:00Z,28.9818,-94.9186,1014.89,11111222 
TABS,ioos:station:wmo:42043:1,2019-11-11T10:00:00Z,28.9818,-94.9186,1014.82,11111222 
TABS,ioos:station:wmo:42043:1,2019-11-11T10:30:00Z,28.9818,-94.9186,1014.77,11111222 
TABS,ioos:station:wmo:42043:1,2019-11-11T12:00:00Z,28.9818,-94.9186,1015.15,11111222 
TABS,ioos:station:wmo:42043:1,2019-11-11T13:00:00Z,28.9818,-94.9186,1015.62,11111222 
TABS,ioos:station:wmo:42043:1,2019-11-11T14:00:00Z,28.9818,-94.9186,1015.97,11111222 
TABS,ioos:station:wmo:42043:1,2019-11-11T15:00:00Z,28.9818,-94.9186,1016.32,11111222 
TABS,ioos:station:wmo:42043:1,2019-11-11T16:00:00Z,28.9818,-94.9186,1016.16,11111222 
TABS,ioos:station:wmo:42043:1,2019-11-11T17:00:00Z,28.9818,-94.9186,1015.44,11111222 
TABS,ioos:station:wmo:42043:1,2019-11-11T18:00:00Z,28.9818,-94.9186,1015.06,11111222 
TABS,ioos:station:wmo:42043:1,2019-11-11T19:00:00Z,28.9818,-94.9186,1014.45,11111222 
TABS,ioos:station:wmo:42043:1,2019-11-11T20:00:00Z,28.9818,-94.9186,1014.82,11111222 
TABS,ioos:station:wmo:42043:1,2019-11-11T21:00:00Z,28.9818,-94.9186,1014.65,11111222 
TABS,ioos:station:wmo:42043:1,2019-11-11T22:00:00Z,28.9818,-94.9186,1014.87,11111222 
TABS,ioos:station:wmo:42043:1,2019-11-11T23:00:00Z,28.9818,-94.9186,1015.07,11111222 
TABS,ioos:station:wmo:42043:1,2019-11-11T23:30:00Z,28.9818,-94.9186,1015.33,11111222 
TABS,ioos:station:wmo:42043:1,2019-11-12T05:00:00Z,28.9818,-94.9186,1021.55,11111222 
TABS,ioos:station:wmo:42043:1,2019-11-12T06:00:00Z,28.9818,-94.9186,1022.1,11111222 
TABS,ioos:station:wmo:42043:1,2019-11-12T07:00:00Z,28.9818,-94.9186,1023.08,11111222 
TABS,ioos:station:wmo:42043:1,2019-11-12T08:00:00Z,28.9818,-94.9186,1023.46,11111222 
TABS,ioos:station:wmo:42043:1,2019-11-12T09:00:00Z,28.9818,-94.9186,1024.07,11111222 
TABS,ioos:station:wmo:42043:1,2019-11-12T10:00:00Z,28.9818,-94.9186,1024.33,11111222 
TABS,ioos:station:wmo:42043:1,2019-11-12T11:00:00Z,28.9818,-94.9186,1024.8,11111222 
TABS,ioos:station:wmo:42043:1,2019-11-12T12:00:00Z,28.9818,-94.9186,1026.63,11111222 
TABS,ioos:station:wmo:42043:1,2019-11-12T13:00:00Z,28.9818,-94.9186,1027.58,11111222 
TABS,ioos:station:wmo:42043:1,2019-11-12T13:30:00Z,28.9818,-94.9186,1027.88,11111222 
TABS,ioos:station:wmo:42043:1,2019-11-12T14:00:00Z,28.9818,-94.9186,1027.33,11111222 
TABS,ioos:station:wmo:42043:1,2019-11-12T16:00:00Z,28.9818,-94.9186,1030.11,11111222 
TABS,ioos:station:wmo:42043:1,2019-11-12T17:00:00Z,28.9818,-94.9186,1029.53,11111222 
TABS,ioos:station:wmo:42043:1,2019-11-12T18:00:00Z,28.9818,-94.9186,1028.96,11111222 
TABS,ioos:station:wmo:42043:1,2019-11-12T19:00:00Z,28.9818,-94.9186,1028.56,11111222 
TABS,ioos:station:wmo:42043:1,2019-11-12T20:00:00Z,28.9818,-94.9186,1027.67,11111222 
TABS,ioos:station:wmo:42043:1,2019-11-12T21:00:00Z,28.9818,-94.9186,1027.67,11111222 
TABS,ioos:station:wmo:42043:1,2019-11-12T22:00:00Z,28.9818,-94.9186,1027.05,11111222 
TABS,ioos:station:wmo:42043:1,2019-11-12T23:00:00Z,28.9818,-94.9186,1027.61,11111222 
TABS,ioos:station:wmo:42043:1,2019-11-12T23:30:00Z,28.9818,-94.9186,1027.12,11111222 
TABS,ioos:station:wmo:42043:1,2019-11-13T05:00:00Z,28.9818,-94.9186,1027.93,11111222 
TABS,ioos:station:wmo:42043:1,2019-11-13T06:00:00Z,28.9818,-94.9186,1027.96,11111222 
TABS,ioos:station:wmo:42043:1,2019-11-13T07:00:00Z,28.9818,-94.9186,1028.14,11111222 
TABS,ioos:station:wmo:42043:1,2019-11-13T08:00:00Z,28.9818,-94.9186,1027.97,11111222 
TABS,ioos:station:wmo:42043:1,2019-11-13T09:00:00Z,28.9818,-94.9186,1027.69,11111222 
TABS,ioos:station:wmo:42043:1,2019-11-13T10:00:00Z,28.9818,-94.9186,1027.3,11111222 
TABS,ioos:station:wmo:42043:1,2019-11-13T11:00:00Z,28.9818,-94.9186,1027.28,11111222 
TABS,ioos:station:wmo:42043:1,2019-11-13T12:00:00Z,28.9818,-94.9186,1026.85,11111222 
TABS,ioos:station:wmo:42043:1,2019-11-13T13:00:00Z,28.9818,-94.9186,1026.6,11111222 
TABS,ioos:station:wmo:42043:1,2019-11-13T14:00:00Z,28.9818,-94.9186,1026.38,11111222 
TABS,ioos:station:wmo:42043:1,2019-11-13T15:00:00Z,28.9818,-94.9186,1026.53,11111222 
TABS,ioos:station:wmo:42043:1,2019-11-13T16:00:00Z,28.9818,-94.9186,1026.08,11111222 
TABS,ioos:station:wmo:42043:1,2019-11-13T17:00:00Z,28.9818,-94.9186,1026.03,11111222 
TABS,ioos:station:wmo:42043:1,2019-11-13T18:00:00Z,28.9818,-94.9186,1024.87,11111222 
TABS,ioos:station:wmo:42043:1,2019-11-13T19:00:00Z,28.9818,-94.9186,1023.32,11111222 
TABS,ioos:station:wmo:42043:1,2019-11-13T20:00:00Z,28.9818,-94.9186,1022.9,11111222 
TABS,ioos:station:wmo:42043:1,2019-11-13T21:00:00Z,28.9818,-94.9186,1022.17,11111222 
TABS,ioos:station:wmo:42043:1,2019-11-13T22:00:00Z,28.9818,-94.9186,1021.77,11111222 
TABS,ioos:station:wmo:42043:1,2019-11-13T22:30:00Z,28.9818,-94.9186,1021.34,11111222 
TABS,ioos:station:wmo:42043:1,2019-11-13T23:30:00Z,28.9818,-94.9186,1020.56,11111222 
TABS,ioos:station:wmo:42043:1,2019-11-14T05:00:00Z,28.9818,-94.9186,1020.66,11111222 
TABS,ioos:station:wmo:42043:1,2019-11-14T06:00:00Z,28.9818,-94.9186,1020.14,11111222 
TABS,ioos:station:wmo:42043:1,2019-11-14T07:00:00Z,28.9818,-94.9186,1020.03,11111222 
TABS,ioos:station:wmo:42043:1,2019-11-14T08:00:00Z,28.9818,-94.9186,1019.92,11111222 
TABS,ioos:station:wmo:42043:1,2019-11-14T09:00:00Z,28.9818,-94.9186,1019.77,11111222 
TABS,ioos:station:wmo:42043:1,2019-11-14T10:00:00Z,28.9818,-94.9186,1019.66,11111222 
TABS,ioos:station:wmo:42043:1,2019-11-14T11:00:00Z,28.9818,-94.9186,1019.78,11111222 
TABS,ioos:station:wmo:42043:1,2019-11-14T12:00:00Z,28.9818,-94.9186,1020.53,11111222 
TABS,ioos:station:wmo:42043:1,2019-11-14T13:00:00Z,28.9818,-94.9186,1021.16,11111222 
TABS,ioos:station:wmo:42043:1,2019-11-14T14:00:00Z,28.9818,-94.9186,1020.58,11111222 
TABS,ioos:station:wmo:42043:1,2019-11-14T15:00:00Z,28.9818,-94.9186,1022.13,11111222 
TABS,ioos:station:wmo:42043:1,2019-11-14T16:00:00Z,28.9818,-94.9186,1022.41,11111222 
TABS,ioos:station:wmo:42043:1,2019-11-14T17:00:00Z,28.9818,-94.9186,1022.11,11111222 
TABS,ioos:station:wmo:42043:1,2019-11-14T18:00:00Z,28.9818,-94.9186,1021.9,11111222 
TABS,ioos:station:wmo:42043:1,2019-11-14T19:00:00Z,28.9818,-94.9186,1021.41,11111222 
TABS,ioos:station:wmo:42043:1,2019-11-14T20:00:00Z,28.9818,-94.9186,1021.51,11111222 
TABS,ioos:station:wmo:42043:1,2019-11-14T21:00:00Z,28.9818,-94.9186,1022.04,11111222 
TABS,ioos:station:wmo:42043:1,2019-11-14T22:00:00Z,28.9818,-94.9186,1022.08,11111222 
TABS,ioos:station:wmo:42043:1,2019-11-14T23:00:00Z,28.9818,-94.9186,1022.9,11111222 
TABS,ioos:station:wmo:42043:1,2019-11-14T23:30:00Z,28.9818,-94.9186,1023.41,11111222 
TABS,ioos:station:wmo:42043:1,2019-11-15T05:00:00Z,28.9818,-94.9186,1026.2,11111222 
TABS,ioos:station:wmo:42043:1,2019-11-15T06:00:00Z,28.9818,-94.9186,1025.95,11111222 
TABS,ioos:station:wmo:42043:1,2019-11-15T07:00:00Z,28.9818,-94.9186,1026.36,11111222 
TABS,ioos:station:wmo:42043:1,2019-11-15T08:00:00Z,28.9818,-94.9186,1025.99,11111222 
TABS,ioos:station:wmo:42043:1,2019-11-15T09:00:00Z,28.9818,-94.9186,1026.16,11111222 